Commit graph

  • d855de55e5 Update juce Roland Rabien 2024-01-22 21:43:19 -08:00
  • ce436e492f More wavetables Roland Rabien 2024-01-22 20:48:30 -08:00
  • 53ddf37149
    Update README.md Roland Rabien 2023-12-26 08:14:13 -08:00
  • 205fcdac31 Update JUCE Roland Rabien 2023-12-07 08:33:15 -08:00
  • 7123e364dc Update Gin Roland Rabien 2023-12-07 08:31:49 -08:00
  • 6542b6ca2c Patch browser saves selection when close / reopen editor 1.0.19 Roland Rabien 2023-11-19 10:27:30 -08:00
  • 363d863dde Fixed noise & sub button positions Roland Rabien 2023-11-04 09:36:36 -07:00
  • 03e70e6887 More presets Roland Rabien 2023-11-03 18:08:14 -07:00
  • fe93a36d47 Oops Roland Rabien 2023-11-01 06:53:41 -07:00
  • a249ca195d More presets Roland Rabien 2023-11-01 05:58:17 -07:00
  • f421d88042 More presets Roland Rabien 2023-10-31 18:36:49 -07:00
  • dbe259de15 Version 1.0.18 1.0.18 Roland Rabien 2023-10-20 18:52:12 -07:00
  • a376041ab8 Remove dithers Roland Rabien 2023-10-20 18:49:05 -07:00
  • 862419f88f Fixed FX not being in the correct order when opening GUI Roland Rabien 2023-10-15 06:45:26 -07:00
  • 43df6b217c Version 1.0.17 1.0.17 Roland Rabien 2023-10-14 07:10:31 -07:00
  • 33878f0933 More presets Roland Rabien 2023-10-14 07:08:10 -07:00
  • 1e1432b177 Fixed pitch bend of released notes Roland Rabien 2023-10-12 09:20:28 -07:00
  • 3cbd686ed9 Version 1.0.16 1.0.16 Roland Rabien 2023-10-10 19:49:02 -07:00
  • 53897dd461 Add click to drag wt pos Roland Rabien 2023-10-10 19:08:02 -07:00
  • 14304809b7 Version 1.0.15 1.0.15 Roland Rabien 2023-10-08 22:50:25 -07:00
  • b20f153c84 Add more fx Roland Rabien 2023-10-08 22:44:56 -07:00
  • 8a793ba5b4 Add drag to reorder fx Roland Rabien 2023-10-08 14:31:14 -07:00
  • 2777438436 Version 1.0.14 1.0.14 Roland Rabien 2023-10-08 09:28:34 -07:00
  • aa77988684 Fixed crash on empty wavetables Roland Rabien 2023-10-08 09:05:40 -07:00
  • d10a663212 Version 1.0.13 1.0.13 Roland Rabien 2023-10-07 20:19:56 -07:00
  • bd58bd1584 Added retrig to ADSRs 1.0.12 Roland Rabien 2023-10-07 10:57:13 -07:00
  • 2190db8fc6 Add dots to ADSRs Roland Rabien 2023-10-07 10:31:29 -07:00
  • 6474640dbb Increase clickable size of next/prev preset buttons Roland Rabien 2023-10-06 15:49:30 -07:00
  • 05c1df1371 Finish simd optimize oscillator Roland Rabien 2023-10-06 05:00:22 -07:00
  • a29ec85700 Fix crash closing plugin window Roland Rabien 2023-10-05 17:32:12 -07:00
  • 21d5cb1999 Fix signing 1.0.11b 1.0.11 Roland Rabien 2023-10-05 13:58:32 -07:00
  • b1d5ccb295 Fix script env Roland Rabien 2023-10-05 13:57:59 -07:00
  • 401f2496d7 More logging Roland Rabien 2023-10-05 13:56:51 -07:00
  • 76445cd97f Don't switch ui tabs when loading presets 1.0.10 Roland Rabien 2023-10-05 06:52:46 -07:00
  • c754f51e02 Tweak release process Roland Rabien 2023-10-05 06:37:27 -07:00
  • 01be7194e3 Fix build Roland Rabien 2023-10-05 05:58:30 -07:00
  • f141eca99d Fix warning Roland Rabien 2023-10-05 05:49:23 -07:00
  • dc4df1bb38 Make sure editor scale doesn't change loading presets Roland Rabien 2023-10-05 05:42:08 -07:00
  • 971cbc8ab9 Tweak ModulationOverview Roland Rabien 2023-10-05 05:23:29 -07:00
  • df0ffda643 Remove -static-libstdc++ Roland Rabien 2023-10-03 20:16:09 -07:00
  • d10942f4bb Use Ubuntu 20.04 Roland Rabien 2023-10-03 18:59:57 -07:00
  • 3ac3543a67 Version 1.0.9 1.0.9 release Roland Rabien 2023-10-03 18:27:12 -07:00
  • 8de9601b7f Version 1.0.8 1.0.8 Roland Rabien 2023-10-03 09:07:18 -07:00
  • 53a4c842ad Fixed assigning MPE pressure Roland Rabien 2023-10-03 09:06:21 -07:00
  • 2c94495f02 Removed smoothing from sync delay time Roland Rabien 2023-10-03 08:47:14 -07:00
  • 4afbbc667f Added 50 more wavetables Roland Rabien 2023-10-03 08:35:03 -07:00
  • ee380f205e Fixed loading custom wavetables Roland Rabien 2023-10-03 08:23:48 -07:00
  • 67e057357f Add pulse 25% and 12.5% Roland Rabien 2023-10-03 08:15:17 -07:00
  • 73b34ded3f Add retrig to OSCs Roland Rabien 2023-10-03 08:11:07 -07:00
  • 99b2d2b102 Static standard lib on Linux Roland Rabien 2023-10-02 15:19:21 -07:00
  • 3ee3ff7ec6 Version 1.0.7 1.0.7 Roland Rabien 2023-10-02 14:12:59 -07:00
  • 77a2dd4608 More optimization Roland Rabien 2023-10-02 05:39:51 -07:00
  • 446c51a197 Optimize wt Roland Rabien 2023-10-01 20:10:25 -07:00
  • b3b82a5de8 Version 1.0.6 1.0.6 Roland Rabien 2023-10-01 04:51:40 -07:00
  • 6c6f7f2d72 Fix tempo sync LFO Roland Rabien 2023-10-01 04:50:41 -07:00
  • afb22296b7 fix build 1.0.5 Roland Rabien 2023-09-30 07:43:14 -07:00
  • a01455c18d Fix AU crash Roland Rabien 2023-09-30 07:42:15 -07:00
  • ab200090d1 Slight optimization Roland Rabien 2023-09-30 07:06:22 -07:00
  • dabc112773 Fix parent for add button Roland Rabien 2023-09-29 21:45:43 -07:00
  • 04f36ffa4a Fix parent for add button Roland Rabien 2023-09-29 21:44:11 -07:00
  • 332435ca9b Version 1.0.4 1.0.4 Roland Rabien 2023-09-29 21:07:44 -07:00
  • 1dec94b0a2 Changelist Roland Rabien 2023-09-29 21:07:16 -07:00
  • c9365c8fe0 Allow wavetables without metadata Roland Rabien 2023-09-29 21:06:19 -07:00
  • 6fbf3e1810 Fixed glitch saving presets Roland Rabien 2023-09-29 20:33:49 -07:00
  • cdd3fd99f3 Share a rng between voices Roland Rabien 2023-09-29 20:20:07 -07:00
  • 2ee96c80fb Scroll wheel can adjust combo boxes Roland Rabien 2023-09-29 20:16:30 -07:00
  • c6f9f7d1a5 Try and make delay less zippery Roland Rabien 2023-09-29 20:07:45 -07:00
  • a2f1eb82e4 LFO & StepLFO support multiple dots Roland Rabien 2023-09-29 13:29:08 -07:00
  • 31b881c9dc Clear reverb/delay buffers on panic Roland Rabien 2023-09-29 09:35:19 -07:00
  • ab6f76d7ed Fix tags Roland Rabien 2023-09-29 09:29:39 -07:00
  • ae747bc2e7 Fix tags Roland Rabien 2023-09-29 09:19:29 -07:00
  • 8c02c02b1a wt layout Roland Rabien 2023-09-29 09:14:16 -07:00
  • 938a18623b Fix build Roland Rabien 2023-09-29 09:07:23 -07:00
  • c53eb68a0a Add custom pitch bend range Roland Rabien 2023-09-29 09:01:29 -07:00
  • 1dadf8d952 Allow mod matrix entries to be disabled Roland Rabien 2023-09-28 18:53:35 -07:00
  • 3de6fc16aa Fix stuck notes on switch mono on/off 1.0.3 Roland Rabien 2023-09-28 08:44:58 -07:00
  • 73ca1e6758 Try and smooth delay time (still needs work) Roland Rabien 2023-09-28 08:38:49 -07:00
  • c7872a42ea Renamed Legato rate to Legato Time Roland Rabien 2023-09-28 08:26:07 -07:00
  • 681be5731b Fix Linux bus layouts Roland Rabien 2023-09-28 08:24:34 -07:00
  • 4dd62bf66f Add retrigger to step lfo Roland Rabien 2023-09-28 08:16:31 -07:00
  • e698e29a59 Fix loading presets if preset name doesn't match filename Roland Rabien 2023-09-25 17:55:04 -07:00
  • b9211a81b6 Fix crash if reset before setSampleRate Roland Rabien 2023-09-25 04:28:04 -07:00
  • 2ea9561b00 1.0.2 1.0.2 Roland Rabien 2023-09-24 19:57:38 -07:00
  • 4030dac16b Fixed getFilterCutoffNormalized Roland Rabien 2023-09-24 19:48:06 -07:00
  • 56c3bbfa51 Add retrigger to lfos Roland Rabien 2023-09-24 17:49:53 -07:00
  • bd54be0c66 Switch delay and chorus to lagrange interpolation Roland Rabien 2023-09-24 10:54:34 -07:00
  • beda6ab94b Remove unused vars Roland Rabien 2023-09-24 07:17:39 -07:00
  • 96b0cc97d7 Version 1.0.1 1.0.1 Roland Rabien 2023-09-23 18:57:12 -07:00
  • b466218cbd Add panic button Roland Rabien 2023-09-23 11:10:21 -07:00
  • bf8f8d8ec6 Initial 1.0.0 1.0.0 Roland Rabien 2023-09-23 07:58:48 -07:00
  • 9802898401 Add murti presets Roland Rabien 2023-09-23 07:28:56 -07:00
  • 9ebc4ea9ab Add preset watcher Roland Rabien 2023-09-22 07:08:21 -07:00
  • 12faebdc58 Improve patch brwoser Roland Rabien 2023-09-22 06:44:46 -07:00
  • 9d4b363484 Add standaloneapp Roland Rabien 2023-09-21 21:25:40 -07:00
  • ef53d70792 Version 0.0.11 0.0.11 Roland Rabien 2023-09-21 09:04:50 -07:00
  • 7590ad17b8 Redo last fix correctly Roland Rabien 2023-09-21 07:34:23 -07:00
  • eafadb13c8 Fixed lfo dot drawing Roland Rabien 2023-09-20 22:23:29 -07:00
  • 6898ef0dac Fixed envelopes not reseting Roland Rabien 2023-09-20 22:08:18 -07:00
  • 138c2ab433 Fixed crash with midi cc > 119 Roland Rabien 2023-09-20 16:47:42 -07:00
  • cc3a0bcde0 Version 0.0.10 0.0.10 Roland Rabien 2023-09-20 09:32:45 -07:00